[[{"header":{"parameterUnit":"m.s-1","parameterCategory":1,"la1":30.2991,"la2":30.254,"lo1":-89.0895,"lo2":-89.0444,"dy":0.0017,"dx":0.0017,"nx":28,"ny":28,"refTime":"2025-02-28T03:00:00:Z","depth":0,"parameterNumber":2,"parameterNumberName":"U-component_of_WINDS"},"data":[0,0,0,0,0,0,0,0,0,0,0,0,0,0,0,0,0,0,0,0,0,0,0,0,0,0,0,0,0,0,0,0,0,0,0,0,0,0,0,0,0,0,0,0,0,0,0,0,0,0,0,0,0,0,0,0,0,0,-0.5446,-0.5445,0,-0.5406,-0.5405,-0.5405,-0.5384,-0.5384,-0.5384,-0.5383,-0.5344,-0.5343,-0.5342,0,0,0,0,0,0,0,0,0,0,0,0,0,-0.5506,-0.5505,-0.5446,-0.5445,-0.5445,-0.5406,-0.5405,-0.5405,-0.5384,-0.5384,-0.5384,-0.5383,-0.5344,-0.5343,-0.5342,0,0,0,0,0,0,0,0,0,0,0,0,0,-0.5474,-0.5505,-0.5446,-0.5429,-0.5428,-0.5406,-0.5405,-0.5404,-0.5384,-0.5384,-0.5383,-0.5383,-0.5345,-0.5343,-0.5342,-0.5333,0,0,-0.5337,-0.5336,0,0,0,0,0,0,0,0,-0.5476,-0.5472,-0.5432,-0.5431,-0.5428,-0.5399,-0.5412,-0.5381,-0.5384,-0.54,-0.5383,-0.5383,-0.5363,-0.536,-0.5352,-0.5332,-0.533,-0.5337,-0.5336,-0.5335,-0.5335,0,0,0,0,0,0,0,-0.5478,-0.5474,-0.543,-0.5432,-0.5429,-0.5425,-0.542,-0.5406,-0.5382,-0.5399,-0.5397,-0.5393,-0.5361,-0.5354,-0.5351,-0.5329,-0.5337,-0.5336,-0.5335,-0.5334,-0.5301,-0.5301,0,0,0,0,0,0,-0.5483,-0.5476,-0.5431,-0.5429,-0.5453,-0.5424,-0.5419,-0.5409,-0.5382,-0.5378,-0.5393,-0.5392,-0.5356,-0.5353,-0.535,-0.5339,-0.5335,-0.5334,-0.5333,-0.5301,-0.5301,-0.5301,0,0,0,0,0,0,-0.5484,-0.5479,-0.5433,-0.5452,-0.5445,-0.5423,-0.5412,-0.5408,-0.54,-0.5378,-0.5374,-0.5389,-0.5356,-0.5352,-0.5338,-0.5337,-0.5333,-0.5332,-0.5301,-0.5301,-0.5301,-0.5316,0,0,0,0,0,0,-0.5486,-0.548,-0.5476,-0.5452,-0.5444,-0.5421,-0.5412,-0.5407,-0.5398,-0.5396,-0.5373,-0.5369,-0.5356,-0.534,-0.5336,-0.5335,-0.5331,-0.5301,-0.5301,-0.5301,-0.5316,-0.5317,-0.5318,0,0,0,0,0,-0.5488,-0.5482,-0.5476,-0.547,-0.5439,-0.5421,-0.5417,-0.5401,-0.5398,-0.5394,-0.538,-0.537,-0.5338,-0.5339,-0.5334,-0.5332,-0.5301,-0.5301,-0.5301,-0.5315,-0.5317,-0.5318,0,0,0,0,0,0,-0.5507,-0.5478,-0.5471,-0.5457,-0.5441,-0.5417,-0.5412,-0.5403,-0.5388,-0.5387,-0.5369,-0.5364,-0.5352,-0.5341,-0.5342,-0.5323,-0.5318,-0.5317,-0.5331,-0.5332,-0.5333,-0.5336,-0.5329,0,0,0,0,0,-0.5509,-0.5496,-0.5472,-0.5462,-0.5455,-0.5435,-0.5426,-0.5415,-0.5399,-0.5392,-0.5377,-0.5362,-0.5348,-0.5339,-0.5326,-0.5314,-0.5309,-0.5311,-0.5312,-0.5313,-0.5312,-0.5306,-0.5307,-0.5301,-0.5301,-0.5301,0,0,-0.5514,-0.5497,-0.549,-0.5465,-0.5452,-0.544,-0.5429,-0.5417,-0.5407,-0.539,-0.5376,-0.5364,-0.5346,-0.5334,-0.5327,-0.5324,-0.5313,-0.5313,-0.5314,-0.5313,-0.5306,-0.5307,-0.5307,-0.5301,-0.5301,-0.5301,0,0,-0.5516,-0.5502,-0.5492,-0.5479,-0.5459,-0.5446,-0.5444,-0.5421,-0.5413,-0.5398,-0.5385,-0.5374,-0.5351,-0.5339,-0.533,-0.5328,-0.5319,-0.5324,-0.533,-0.5324,-0.5324,-0.5325,-0.5325,-0.5325,-0.5324,-0.5324,-0.5324,0,-0.5525,-0.5505,-0.5488,-0.5476,-0.5466,-0.545,-0.544,-0.5428,-0.5405,-0.5399,-0.5396,-0.5367,-0.5353,-0.5338,-0.5338,-0.5331,-0.5328,-0.5327,-0.5326,-0.5326,-0.5326,-0.5326,-0.5326,-0.5325,-0.5325,-0.5325,-0.5325,0,-0.5517,-0.5503,-0.5498,-0.5476,-0.5465,-0.5454,-0.5436,-0.5428,-0.5418,-0.5406,-0.5391,-0.5375,-0.5358,-0.5353,-0.5344,-0.5337,-0.5335,-0.5329,-0.5324,-0.5327,-0.5327,-0.5327,-0.5326,-0.5326,-0.5325,-0.5325,0,0,-0.5529,-0.5498,-0.5496,-0.5486,-0.5463,-0.5453,-0.5442,-0.5425,-0.5418,-0.5403,-0.5394,-0.5375,-0.5369,-0.5359,-0.5348,-0.5343,-0.5343,-0.5337,-0.5337,-0.5339,-0.5335,-0.534,-0.534,-0.5337,-0.5337,-0.5337,-0.5337,0,-0.5528,-0.5507,-0.5492,-0.5476,-0.5464,-0.545,-0.544,-0.5426,-0.5414,-0.5402,-0.539,-0.5377,-0.537,-0.5364,-0.5358,-0.5345,-0.5342,-0.5344,-0.5329,-0.5329,-0.5334,-0.534,-0.5345,-0.5345,-0.5337,-0.5337,-0.5336,0,-0.5524,-0.5509,-0.5493,-0.5472,-0.5467,-0.5458,-0.5442,-0.5431,-0.5414,-0.5406,-0.5395,-0.5384,-0.5372,-0.5368,-0.5352,-0.5354,-0.5347,-0.534,-0.5339,-0.5337,-0.5333,-0.5338,-0.5345,-0.5345,-0.5336,-0.5336,-0.5336,0,-0.5535,-0.5511,-0.5498,-0.549,-0.5466,-0.546,-0.545,-0.5433,-0.5424,-0.541,-0.5404,-0.5389,-0.5381,-0.537,-0.5355,-0.5354,-0.5341,-0.5336,-0.5335,-0.5335,-0.5333,-0.5333,-0.5339,-0.5328,-0.5328,-0.5328,-0.5328,0,-0.5535,-0.5526,-0.5503,-0.5495,-0.5484,-0.5468,-0.5458,-0.5446,-0.5432,-0.5422,-0.5409,-0.54,-0.5381,-0.537,-0.5359,-0.5348,-0.5344,-0.5338,-0.5335,-0.5339,-0.534,-0.5334,-0.5334,-0.5328,-0.5328,-0.5328,-0.5328,0,-0.5546,-0.5529,-0.5515,-0.5493,-0.5487,-0.548,-0.5462,-0.5454,-0.5442,-0.543,-0.5426,-0.5408,-0.5394,-0.5379,-0.536,-0.5353,-0.5343,-0.5338,-0.5348,-0.5346,-0.5347,-0.5347,-0.5348,-0.5348,-0.5338,-0.5338,-0.5338,0,-0.5547,-0.5539,-0.5517,-0.5509,-0.5499,-0.5487,-0.5478,-0.5461,-0.5453,-0.5434,-0.5429,-0.5414,-0.5402,-0.5381,-0.5366,-0.5352,-0.5348,-0.5349,-0.5346,-0.535,-0.5348,-0.5349,-0.5348,-0.535,-0.535,-0.5351,-0.5351,0,-0.5551,-0.5544,-0.5531,-0.5515,-0.5505,-0.5492,-0.5479,-0.5473,-0.5454,-0.5445,-0.5431,-0.5422,-0.5403,-0.5389,-0.5374,-0.5363,-0.5354,-0.5352,-0.5351,-0.5355,-0.5361,-0.5358,-0.5351,-0.5352,-0.5352,-0.5352,-0.5352,-0.5352,-0.5557,-0.555,-0.5533,-0.5519,-0.5508,-0.5496,-0.5488,-0.5475,-0.5463,-0.5446,-0.5437,-0.5424,-0.5409,-0.5387,-0.5377,-0.5367,-0.5363,-0.5362,-0.5362,-0.5362,-0.5363,-0.5363,-0.5364,-0.5364,-0.5363,-0.5363,-0.5363,0,-0.5561,-0.5549,-0.5537,-0.5519,-0.5508,-0.55,-0.5485,-0.5477,-0.5466,-0.5452,-0.544,-0.5425,-0.5411,-0.5396,-0.5382,-0.5376,-0.5372,-0.5373,-0.5373,-0.5371,-0.5366,-0.5369,-0.5377,-0.5377,-0.5377,-0.5377,-0.5377,-0.5377,-0.5561,-0.5549,-0.554,-0.5522,-0.5511,-0.5498,-0.549,-0.5479,-0.5468,-0.5451,-0.544,-0.543,-0.5416,-0.5401,-0.5389,-0.5384,-0.538,-0.5383,-0.5377,-0.5373,-0.5372,-0.5371,-0.5373,-0.5382,-0.5382,-0.5383,-0.5383,-0.5383]},{"header":{"parameterUnit":"m.s-1","parameterCategory":1,"la1":30.2991,"la2":30.254,"lo1":-89.0895,"lo2":-89.0444,"dy":0.0017,"dx":0.0017,"nx":28,"ny":28,"refTime":"2025-02-28T03:00:00:Z","depth":0,"parameterNumber":3,"parameterNumberName":"V-component_of_WINDS"},"data":[0,0,0,0,0,0,0,0,0,0,0,0,0,0,0,0,0,0,0,0,0,0,0,0,0,0,0,0,0,0,0,0,0,0,0,0,0,0,0,0,0,0,0,0,0,0,0,0,0,0,0,0,0,0,0,0,0,0,-0.6294,-0.6294,0,-0.6302,-0.6302,-0.6303,-0.6283,-0.6283,-0.6282,-0.6282,-0.6289,-0.629,-0.6291,0,0,0,0,0,0,0,0,0,0,0,0,0,-0.6261,-0.6262,-0.6294,-0.6294,-0.6294,-0.6302,-0.6303,-0.6303,-0.6284,-0.6283,-0.6282,-0.6281,-0.6289,-0.629,-0.6291,0,0,0,0,0,0,0,0,0,0,0,0,0,-0.6273,-0.6262,-0.6294,-0.6286,-0.6285,-0.6302,-0.6303,-0.6303,-0.6284,-0.6283,-0.6282,-0.6281,-0.6289,-0.629,-0.6291,-0.6316,0,0,-0.6294,-0.6295,0,0,0,0,0,0,0,0,-0.6272,-0.6274,-0.6287,-0.6286,-0.6286,-0.6291,-0.6293,-0.6307,-0.6284,-0.6284,-0.6282,-0.6281,-0.629,-0.6291,-0.6295,-0.6316,-0.6317,-0.6294,-0.6295,-0.6296,-0.6296,0,0,0,0,0,0,0,-0.6271,-0.6274,-0.6297,-0.6287,-0.6286,-0.6281,-0.6282,-0.6296,-0.6292,-0.6284,-0.6283,-0.6284,-0.629,-0.6294,-0.6295,-0.6317,-0.6294,-0.6295,-0.6296,-0.6297,-0.636,-0.6361,0,0,0,0,0,0,-0.6272,-0.6273,-0.6297,-0.6298,-0.6277,-0.6283,-0.6283,-0.629,-0.6292,-0.6291,-0.6285,-0.6283,-0.6292,-0.6294,-0.6295,-0.6325,-0.6296,-0.6297,-0.6297,-0.6359,-0.636,-0.6361,0,0,0,0,0,0,-0.6271,-0.6274,-0.6297,-0.6285,-0.6287,-0.6284,-0.6292,-0.6291,-0.6295,-0.6293,-0.6292,-0.629,-0.6292,-0.6293,-0.6311,-0.6325,-0.6297,-0.6298,-0.6358,-0.6359,-0.6361,-0.6386,0,0,0,0,0,0,-0.627,-0.6274,-0.6284,-0.6285,-0.6288,-0.6313,-0.6293,-0.6292,-0.6297,-0.6295,-0.6297,-0.6296,-0.6291,-0.631,-0.6312,-0.6326,-0.6299,-0.6357,-0.6359,-0.636,-0.6383,-0.6388,-0.6391,0,0,0,0,0,-0.6269,-0.629,-0.6284,-0.6287,-0.63,-0.6314,-0.6316,-0.6309,-0.6298,-0.6308,-0.6306,-0.6296,-0.6323,-0.6312,-0.6314,-0.6329,-0.6356,-0.6358,-0.636,-0.6382,-0.6387,-0.6391,0,0,0,0,0,0,-0.629,-0.629,-0.6284,-0.6306,-0.631,-0.6311,-0.6323,-0.6315,-0.6322,-0.632,-0.6311,-0.6312,-0.6331,-0.6332,-0.6319,-0.6354,-0.6337,-0.634,-0.6353,-0.6358,-0.6362,-0.6361,-0.63,0,0,0,0,0,-0.6297,-0.6308,-0.6308,-0.6327,-0.633,-0.6326,-0.6332,-0.6327,-0.633,-0.6332,-0.6332,-0.6336,-0.6345,-0.6351,-0.636,-0.6383,-0.6384,-0.6395,-0.6399,-0.6402,-0.6405,-0.6418,-0.6423,-0.6369,-0.6369,-0.6369,0,0,-0.6312,-0.6313,-0.6321,-0.6332,-0.6334,-0.6346,-0.6328,-0.6341,-0.6349,-0.6334,-0.6351,-0.6351,-0.6355,-0.6376,-0.6385,-0.6376,-0.642,-0.6405,-0.6407,-0.6408,-0.642,-0.6425,-0.643,-0.637,-0.637,-0.637,0,0,-0.6345,-0.6347,-0.6364,-0.6367,-0.6372,-0.6369,-0.6373,-0.6375,-0.6375,-0.6392,-0.638,-0.639,-0.6406,-0.641,-0.6413,-0.6448,-0.6439,-0.6451,-0.6472,-0.6484,-0.6489,-0.6492,-0.6505,-0.651,-0.6454,-0.6454,-0.6454,0,-0.6363,-0.638,-0.6373,-0.6388,-0.6393,-0.638,-0.6397,-0.64,-0.6407,-0.641,-0.6401,-0.6421,-0.6423,-0.6445,-0.6453,-0.6457,-0.6461,-0.6451,-0.6489,-0.6492,-0.6496,-0.6508,-0.6512,-0.6455,-0.6455,-0.6455,-0.6455,0,-0.6402,-0.6414,-0.6427,-0.6435,-0.6441,-0.6457,-0.6452,-0.6459,-0.6454,-0.6452,-0.647,-0.6471,-0.648,-0.6484,-0.6479,-0.6506,-0.65,-0.649,-0.6474,-0.6502,-0.6514,-0.6518,-0.6457,-0.6457,-0.6456,-0.6456,0,0,-0.6448,-0.6452,-0.6457,-0.6461,-0.6465,-0.6474,-0.6489,-0.6498,-0.6504,-0.6509,-0.6522,-0.6536,-0.6526,-0.6531,-0.6525,-0.6536,-0.6564,-0.6525,-0.6525,-0.6532,-0.6594,-0.6602,-0.6608,-0.6558,-0.6559,-0.656,-0.6594,0,-0.6482,-0.6508,-0.6502,-0.6528,-0.6539,-0.6527,-0.654,-0.6544,-0.6542,-0.6552,-0.655,-0.656,-0.6547,-0.655,-0.656,-0.6559,-0.6577,-0.6556,-0.657,-0.657,-0.657,-0.6614,-0.6622,-0.6655,-0.6598,-0.6599,-0.66,0,-0.6524,-0.6531,-0.6558,-0.6561,-0.6565,-0.6577,-0.6585,-0.6594,-0.6598,-0.6596,-0.6601,-0.6594,-0.6608,-0.6592,-0.6612,-0.6598,-0.6603,-0.6603,-0.6604,-0.6605,-0.6587,-0.6617,-0.6665,-0.667,-0.6606,-0.6606,-0.6605,0,-0.6556,-0.6572,-0.659,-0.6594,-0.6597,-0.6606,-0.6607,-0.6611,-0.6616,-0.6623,-0.6627,-0.6635,-0.664,-0.6646,-0.6641,-0.6629,-0.6662,-0.6645,-0.6661,-0.6661,-0.6669,-0.6668,-0.6719,-0.6671,-0.6671,-0.6671,-0.6671,0,-0.6594,-0.661,-0.6605,-0.6616,-0.6635,-0.6628,-0.6647,-0.6647,-0.665,-0.6661,-0.665,-0.6661,-0.6653,-0.6663,-0.6659,-0.6676,-0.6678,-0.6677,-0.6676,-0.6679,-0.6679,-0.6682,-0.668,-0.6672,-0.6672,-0.6672,-0.6672,0,-0.6632,-0.6629,-0.6648,-0.665,-0.6651,-0.6665,-0.6666,-0.6677,-0.6675,-0.6689,-0.6692,-0.6689,-0.67,-0.6695,-0.6706,-0.6704,-0.6726,-0.6722,-0.6725,-0.6724,-0.6741,-0.674,-0.6796,-0.6803,-0.675,-0.6751,-0.6751,0,-0.6657,-0.667,-0.6673,-0.668,-0.6683,-0.6694,-0.67,-0.6694,-0.67,-0.6706,-0.6716,-0.6726,-0.6734,-0.6752,-0.6751,-0.6759,-0.6755,-0.6774,-0.6757,-0.6759,-0.6756,-0.6756,-0.6757,-0.6778,-0.6779,-0.6779,-0.678,0,-0.6701,-0.6699,-0.6709,-0.6718,-0.6725,-0.6732,-0.6738,-0.6744,-0.6738,-0.6746,-0.6757,-0.6764,-0.6776,-0.6786,-0.6794,-0.6795,-0.6787,-0.6785,-0.679,-0.6792,-0.6794,-0.6794,-0.6735,-0.6784,-0.6784,-0.6783,-0.6783,-0.6783,-0.6734,-0.6745,-0.6749,-0.676,-0.6764,-0.677,-0.678,-0.6779,-0.6789,-0.6799,-0.6794,-0.6807,-0.6811,-0.6821,-0.6823,-0.6834,-0.6826,-0.6832,-0.6834,-0.6836,-0.6838,-0.6792,-0.6835,-0.6835,-0.6835,-0.6835,-0.6834,0,-0.6778,-0.678,-0.679,-0.6799,-0.6808,-0.6799,-0.6805,-0.6813,-0.6825,-0.6829,-0.6837,-0.6851,-0.6861,-0.686,-0.6869,-0.6878,-0.6874,-0.688,-0.688,-0.688,-0.6844,-0.684,-0.6883,-0.6883,-0.6883,-0.6883,-0.6883,-0.6883,-0.6802,-0.682,-0.6819,-0.6839,-0.6841,-0.6854,-0.6859,-0.6864,-0.6867,-0.6883,-0.6891,-0.6891,-0.6894,-0.6903,-0.6912,-0.6911,-0.6915,-0.6923,-0.6921,-0.6888,-0.6883,-0.6878,-0.6874,-0.6924,-0.6924,-0.6957,-0.6957,-0.6957]}]]